Location: Pacheco
(37.9835°N, 122.0752°W)
Time: 09:50:13
(UTC+00:00)

Cosmos 1515 Rocket - Pass Details

Date: 25 July 2024
Orbit: 600 x 624 km, 82.5° (Epoch: 09 July)

Event Time Altitude Azimuth Distance (km) Brightness Sun altitude
Rises 10:25:54 0° 353° (N) 2,899 7.7 -24.8°
Reaches altitude 10° 10:28:09 10° 354° (N) 1,985 6.8 -24.6°
Maximum altitude 10:32:33 85° 84° (E) 620 3.4 -24.1°
Enters shadow 10:32:37 84° 117° (ESE) 621 3.4 -24.0°
